When you browse on this site, cookies collect data to enhance your experience and personalize the content and advertising you see.
Visit our Privacy Policy to learn more. By continuing to use the site, you agree to this use of cookies and data.
  • In Lithuania
  • List of Countries
  • For 7 days
  • Water Temperature
  • Weather Map
  • Weather Widgets
  • user-avatar
    Login

    Hourly Weather Djibouti

    Today, 6 June, Saturday

    Time Temperature Precipitation Wind Pressure Humidity
    00:00 +33°C° 0 mm 1 mps 755 mmHg 65%
    01:00 +33°C° 0 mm 1 mps 755 mmHg 65%
    02:00 +33°C° 0 mm 1 mps 754 mmHg 66%
    03:00 +30°C° 0 mm 0 mps 754 mmHg 67%
    04:00 +30°C° 0 mm 0 mps 754 mmHg 67%
    05:00 +31°C° 0 mm 0 mps 755 mmHg 67%
    06:00 +31°C° 0 mm 0 mps 755 mmHg 67%
    07:00 +34°C° 0 mm 1 mps 756 mmHg 57%
    08:00 +36°C° 0 mm 2 mps 756 mmHg 47%
    09:00 +38°C° 0 mm 3 mps 756 mmHg 37%
    10:00 +38°C° 0 mm 4 mps 756 mmHg 36%
    11:00 +40°C° 0 mm 5 mps 755 mmHg 36%
    12:00 +40°C° 0 mm 6 mps 755 mmHg 35%
    13:00 +41°C° 0 mm 5 mps 754 mmHg 32%
    14:00 +42°C° 0 mm 4 mps 753 mmHg 30%
    15:00 +43°C° 0 mm 4 mps 752 mmHg 27%
    16:00 +43°C° 0 mm 3 mps 752 mmHg 28%
    17:00 +42°C° 0 mm 3 mps 752 mmHg 29%
    18:00 +42°C° 0 mm 3 mps 752 mmHg 30%
    19:00 +40°C° 0 mm 3 mps 752 mmHg 34%
    20:00 +39°C° 0 mm 3 mps 752 mmHg 39%
    21:00 +38°C° 0 mm 3 mps 753 mmHg 43%
    22:00 +37°C° 0 mm 3 mps 753 mmHg 48%
    23:00 +36°C° 0 mm 2 mps 753 mmHg 52%

    Tomorrow, 7 June, Sunday

    Time Temperature Precipitation Wind Pressure Humidity
    00:00 +35°C° 0 mm 2 mps 753 mmHg 56%
    01:00 +34°C° 0 mm 1 mps 753 mmHg 57%
    02:00 +34°C° 0 mm 1 mps 752 mmHg 58%
    03:00 +32°C° 0 mm 0 mps 752 mmHg 58%
    04:00 +34°C° 0 mm 1 mps 752 mmHg 57%
    05:00 +35°C° 0 mm 2 mps 753 mmHg 56%
    06:00 +35°C° 0 mm 3 mps 753 mmHg 55%
    07:00 +37°C° 0 mm 3 mps 753 mmHg 48%
    08:00 +38°C° 0 mm 4 mps 754 mmHg 42%
    09:00 +41°C° 0 mm 5 mps 754 mmHg 35%
    10:00 +42°C° 0 mm 5 mps 754 mmHg 33%
    11:00 +43°C° 0 mm 5 mps 753 mmHg 31%
    12:00 +45°C° 0 mm 5 mps 753 mmHg 28%
    13:00 +45°C° 0 mm 5 mps 752 mmHg 26%
    14:00 +45°C° 0 mm 4 mps 751 mmHg 24%
    15:00 +47°C° 0 mm 4 mps 751 mmHg 22%
    16:00 +45°C° 0 mm 4 mps 751 mmHg 21%
    17:00 +45°C° 0 mm 4 mps 750 mmHg 21%
    18:00 +45°C° 0 mm 4 mps 750 mmHg 21%
    19:00 +43°C° 0 mm 3 mps 751 mmHg 28%
    20:00 +40°C° 0 mm 3 mps 751 mmHg 35%
    21:00 +38°C° 0 mm 2 mps 752 mmHg 42%
    22:00 +38°C° 0 mm 2 mps 752 mmHg 41%
    23:00 +38°C° 0 mm 3 mps 752 mmHg 39%

    Day after tomorrow, 8 June, Monday

    Time Temperature Precipitation Wind Pressure Humidity
    00:00 +39°C° 0 mm 3 mps 752 mmHg 37%
    01:00 +38°C° 0 mm 3 mps 751 mmHg 37%
    02:00 +38°C° 0 mm 3 mps 751 mmHg 37%
    03:00 +38°C° 0 mm 4 mps 751 mmHg 36%
    04:00 +38°C° 0 mm 4 mps 751 mmHg 37%
    05:00 +37°C° 0 mm 5 mps 751 mmHg 37%
    06:00 +37°C° 0 mm 5 mps 751 mmHg 37%
    07:00 +40°C° 0 mm 5 mps 752 mmHg 34%
    08:00 +41°C° 0 mm 5 mps 752 mmHg 31%
    09:00 +43°C° 0 mm 5 mps 753 mmHg 28%
    10:00 +45°C° 0 mm 5 mps 752 mmHg 26%
    11:00 +45°C° 0 mm 4 mps 752 mmHg 24%
    12:00 +47°C° 0 mm 4 mps 751 mmHg 22%
    13:00 +47°C° 0 mm 4 mps 751 mmHg 21%
    14:00 +47°C° 0 mm 5 mps 750 mmHg 20%
    15:00 +48°C° 0 mm 5 mps 749 mmHg 20%
    16:00 +46°C° 0 mm 5 mps 749 mmHg 24%
    17:00 +44°C° 0 mm 4 mps 749 mmHg 28%
    18:00 +42°C° 0 mm 4 mps 749 mmHg 33%
    19:00 +40°C° 0 mm 3 mps 750 mmHg 36%
    20:00 +39°C° 0 mm 2 mps 750 mmHg 38%
    21:00 +37°C° 0 mm 1 mps 750 mmHg 41%
    22:00 +38°C° 0 mm 2 mps 750 mmHg 40%
    23:00 +38°C° 0 mm 2 mps 750 mmHg 38%

    9 June, Tuesday

    Time Temperature Precipitation Wind Pressure Humidity
    00:00 +38°C° 0 mm 3 mps 750 mmHg 37%
    01:00 +38°C° 0 mm 2 mps 750 mmHg 38%
    02:00 +37°C° 0 mm 2 mps 750 mmHg 40%
    03:00 +36°C° 0 mm 1 mps 750 mmHg 41%
    04:00 +36°C° 0 mm 1 mps 751 mmHg 40%
    05:00 +36°C° 0 mm 1 mps 751 mmHg 40%
    06:00 +36°C° 0 mm 1 mps 751 mmHg 40%
    07:00 +38°C° 0 mm 2 mps 752 mmHg 36%
    08:00 +40°C° 0 mm 2 mps 752 mmHg 32%
    09:00 +43°C° 0 mm 3 mps 753 mmHg 28%
    10:00 +44°C° 0 mm 3 mps 752 mmHg 27%
    11:00 +44°C° 0 mm 3 mps 752 mmHg 26%
    12:00 +45°C° 0 mm 3 mps 751 mmHg 25%
    13:00 +44°C° 0 mm 4 mps 751 mmHg 29%
    14:00 +43°C° 0 mm 5 mps 750 mmHg 32%
    15:00 +44°C° 0 mm 6 mps 750 mmHg 35%
    16:00 +42°C° 0 mm 6 mps 750 mmHg 36%
    17:00 +41°C° 0 mm 5 mps 750 mmHg 37%
    18:00 +41°C° 0 mm 5 mps 750 mmHg 38%
    19:00 +40°C° 0 mm 4 mps 750 mmHg 37%
    20:00 +40°C° 0 mm 4 mps 751 mmHg 37%
    21:00 +39°C° 0 mm 3 mps 751 mmHg 37%
    22:00 +39°C° 0 mm 3 mps 751 mmHg 37%
    23:00 +40°C° 0 mm 4 mps 751 mmHg 36%

    10 June, Wednesday

    Time Temperature Precipitation Wind Pressure Humidity
    00:00 +40°C° 0 mm 4 mps 751 mmHg 35%
    01:00 +39°C° 0 mm 3 mps 751 mmHg 36%
    02:00 +39°C° 0 mm 2 mps 750 mmHg 37%
    03:00 +37°C° 0 mm 1 mps 750 mmHg 38%
    04:00 +38°C° 0 mm 2 mps 750 mmHg 39%
    05:00 +37°C° 0 mm 2 mps 751 mmHg 41%
    06:00 +36°C° 0 mm 2 mps 751 mmHg 42%
    07:00 +39°C° 0 mm 2 mps 752 mmHg 36%
    08:00 +41°C° 0 mm 2 mps 752 mmHg 29%
    09:00 +43°C° 0 mm 2 mps 753 mmHg 22%
    10:00 +45°C° 0 mm 3 mps 752 mmHg 20%
    11:00 +46°C° 0 mm 3 mps 752 mmHg 18%
    12:00 +48°C° 0 mm 4 mps 751 mmHg 15%
    13:00 +48°C° 0 mm 4 mps 751 mmHg 18%
    14:00 +47°C° 0 mm 5 mps 750 mmHg 21%
    15:00 +47°C° 0 mm 5 mps 749 mmHg 23%
    16:00 +45°C° 0 mm 5 mps 749 mmHg 26%
    17:00 +43°C° 0 mm 4 mps 749 mmHg 29%
    18:00 +41°C° 0 mm 4 mps 749 mmHg 31%
    19:00 +40°C° 0 mm 3 mps 750 mmHg 32%
    20:00 +40°C° 0 mm 3 mps 750 mmHg 34%
    21:00 +39°C° 0 mm 2 mps 750 mmHg 35%
    22:00 +39°C° 0 mm 3 mps 750 mmHg 34%
    23:00 +39°C° 0 mm 3 mps 750 mmHg 33%

    11 June, Thursday

    Time Temperature Precipitation Wind Pressure Humidity
    00:00 +38°C° 0 mm 3 mps 750 mmHg 33%
    01:00 +38°C° 0 mm 3 mps 750 mmHg 33%
    02:00 +38°C° 0 mm 2 mps 749 mmHg 33%
    03:00 +38°C° 0 mm 2 mps 749 mmHg 34%
    04:00 +37°C° 0 mm 2 mps 749 mmHg 32%
    05:00 +37°C° 0 mm 2 mps 750 mmHg 31%
    06:00 +36°C° 0 mm 1 mps 750 mmHg 30%
    07:00 +39°C° 0 mm 2 mps 750 mmHg 27%
    08:00 +42°C° 0 mm 3 mps 751 mmHg 23%
    09:00 +44°C° 0 mm 3 mps 751 mmHg 20%
    10:00 +45°C° 0 mm 3 mps 751 mmHg 18%
    11:00 +46°C° 0 mm 3 mps 750 mmHg 16%
    12:00 +47°C° 0 mm 3 mps 750 mmHg 14%
    13:00 +47°C° 0 mm 3 mps 749 mmHg 17%
    14:00 +47°C° 0 mm 4 mps 748 mmHg 20%
    15:00 +46°C° 0 mm 5 mps 748 mmHg 23%
    16:00 +45°C° 0 mm 5 mps 748 mmHg 25%
    17:00 +43°C° 0 mm 4 mps 747 mmHg 27%
    18:00 +42°C° 0 mm 4 mps 747 mmHg 29%
    19:00 +40°C° 0 mm 3 mps 748 mmHg 31%
    20:00 +40°C° 0 mm 3 mps 748 mmHg 32%
    21:00 +39°C° 0 mm 3 mps 749 mmHg 34%
    22:00 +39°C° 0 mm 3 mps 749 mmHg 34%
    23:00 +38°C° 0 mm 3 mps 749 mmHg 34%
    Show more